Location: Gälforsberget
(66.6500°N, 22.4167°E)
Time: 17:27:19
(UTC+00:00)

ALOS 2 - Pass Details

Date: 11 April 2026
Orbit: 630 x 632 km, 97.9° (Epoch: 16 May)

Event Time Altitude Azimuth Distance (km) Brightness Sun altitude
Exits shadow 22:29:20 19° 214° (SW) 1,509 4.1 -14.8°
Maximum altitude 22:31:48 33° 266° (W) 1,080 3.7 -14.8°
Drops below altitude 10° 22:35:48 10° 331° (NNW) 2,032 6.1 -14.8°
Sets 22:38:12 0° 341° (NNW) 2,944 7.4 -14.7°
